USA 134

Last updated on Sun Dec 07 2025 00:02:45 GMT+0000 (Coordinated Universal Time)

1 25019U 97065A 25340.27148352 -.00000064 00000+0 00000+0 0 9999 2 25019 12.5541 23.1436 0006538 263.7040 133.9683 1.00269131 31022
UTC large
Height (km)
Speed (km/s)
/
Latitude / Longitude
Inclination (degrees)
Orbital Period (minutes)
Azimuth
Elevation
Range (km)
Doppler Factor

Next 0 passes for location: London (51.5072 / 0.1276)

Sorry there are no passes over London.